| time (UTC) | temp C | wind direction | speed KPH | gust KPH | rain 1hr cm | rain 24hr cm | rain mn cm | humidity % | barometer mb |
| 20260504193056 | 3 | 275 | 19.3 | 46.7 | 0.00 | 0.05 | 0.05 | 99 | 1003.6 |
| 20260504191602 | 3 | 296 | 20.9 | 43.5 | 0.00 | 0.05 | 0.05 | 99 | 1003.4 |
| 20260504190112 | 2 | 265 | 22.5 | 41.8 | 0.00 | 0.05 | 0.05 | 99 | 1003.4 |
| 20260504184555 | 2 | 288 | 20.9 | 35.4 | 0.00 | 0.05 | 0.05 | 99 | 1003.5 |
| 20260504183101 | 2 | 263 | 22.5 | 38.6 | 0.00 | 0.05 | 0.05 | 99 | 1003.5 |
| 20260504181557 | 2 | 242 | 22.5 | 38.6 | 0.03 | 0.05 | 0.05 | 99 | 1003.6 |
| 20260504180059 | 2 | 253 | 20.9 | 46.7 | 0.03 | 0.05 | 0.05 | 99 | 1003.5 |
| 20260504174554 | 2 | 276 | 19.3 | 37.0 | 0.03 | 0.05 | 0.05 | 99 | 1003.5 |
| 20260504173054 | 2 | 275 | 14.5 | 35.4 | 0.03 | 0.05 | 0.05 | 99 | 1003.6 |
| 20260504171557 | 2 | 261 | 20.9 | 38.6 | 0.00 | 0.03 | 0.03 | 99 | 1003.5 |
| 20260504081556 | -2 | 290 | 12.9 | 27.4 | 0.00 | 0.03 | 0.00 | 82 | 1003.3 |
| 20260504080106 | -2 | 271 | 9.7 | 24.1 | 0.00 | 0.03 | 0.00 | 82 | 1003.2 |
| 20260504050105 | -2 | 117 | 8.0 | 24.1 | 0.00 | 0.03 | 0.00 | 86 | 1002.5 |
| 20260504044600 | -2 | 236 | 11.3 | 27.4 | 0.00 | 0.03 | 0.00 | 86 | 1002.7 |
| 20260504043055 | -2 | 151 | 11.3 | 25.7 | 0.00 | 0.03 | 0.00 | 86 | 1002.6 |
| 20260504041601 | -2 | 134 | 9.7 | 19.3 | 0.00 | 0.03 | 0.00 | 86 | 1002.6 |
| 20260504040057 | -2 | 99 | 9.7 | 27.4 | 0.00 | 0.03 | 0.00 | 86 | 1002.5 |
| 20260504034557 | -2 | 346 | 11.3 | 22.5 | 0.00 | 0.03 | 0.03 | 87 | 1002.2 |
| 20260504033054 | -2 | 129 | 11.3 | 25.7 | 0.00 | 0.03 | 0.03 | 87 | 1002.0 |
| 20260504031553 | -2 | 155 | 9.7 | 22.5 | 0.00 | 0.03 | 0.03 | 87 | 1002.1 |
| 20260504030100 | -2 | 288 | 11.3 | 25.7 | 0.00 | 0.03 | 0.03 | 86 | 1002.2 |
| 20260504024617 | -2 | 313 | 11.3 | 25.7 | 0.00 | 0.03 | 0.03 | 86 | 1002.1 |
| 20260504023059 | -2 | 171 | 11.3 | 27.4 | 0.00 | 0.03 | 0.03 | 86 | 1002.2 |
| 20260504021557 | -2 | 42 | 9.7 | 24.1 | 0.00 | 0.03 | 0.03 | 86 | 1002.3 |
| 20260504020057 | -2 | 118 | 11.3 | 24.1 | 0.00 | 0.03 | 0.03 | 87 | 1002.2 |
| 20260504014601 | -2 | 129 | 11.3 | 25.7 | 0.00 | 0.03 | 0.03 | 86 | 1002.2 |
| 20260504013058 | -2 | 104 | 12.9 | 27.4 | 0.00 | 0.03 | 0.03 | 86 | 1002.2 |
| 20260504011555 | -2 | 273 | 9.7 | 33.8 | 0.00 | 0.03 | 0.03 | 87 | 1002.2 |
| 20260504010057 | -2 | 155 | 11.3 | 25.7 | 0.00 | 0.03 | 0.03 | 86 | 1002.3 |
| 20260504004554 | -2 | 145 | 12.9 | 35.4 | 0.00 | 0.03 | 0.03 | 85 | 1001.8 |
| 20260504003057 | -2 | 191 | 12.9 | 32.2 | 0.00 | 0.03 | 0.03 | 85 | 1001.6 |
| 20260504001554 | -2 | 57 | 12.9 | 25.7 | 0.00 | 0.03 | 0.03 | 85 | 1001.6 |
| 20260504000128 | -1 | 164 | 12.9 | 24.1 | 0.00 | 0.03 | 0.03 | 83 | 1001.5 |
| 20260503234601 | -1 | 79 | 14.5 | 33.8 | 0.00 | 0.03 | 0.03 | 82 | 1001.3 |
| 20260503233053 | -1 | 77 | 14.5 | 40.2 | 0.00 | 0.03 | 0.03 | 80 | 1001.2 |
| 20260503231553 | -1 | 253 | 14.5 | 35.4 | 0.00 | 0.03 | 0.03 | 80 | 1001.2 |
| 20260503230054 | -1 | 256 | 11.3 | 22.5 | 0.00 | 0.03 | 0.03 | 81 | 1001.3 |
| 20260503224556 | -1 | 300 | 12.9 | 32.2 | 0.00 | 0.03 | 0.03 | 80 | 1001.1 |
| 20260503223057 | 0 | 107 | 12.9 | 32.2 | 0.00 | 0.03 | 0.03 | 79 | 1001.0 |
| 20260503221558 | 0 | 127 | 14.5 | 35.4 | 0.00 | 0.03 | 0.03 | 80 | 1000.9 |
| 20260503220056 | 0 | 104 | 12.9 | 37.0 | 0.00 | 0.03 | 0.03 | 80 | 1000.8 |
| 20260503214552 | 0 | 248 | 12.9 | 30.6 | 0.00 | 0.03 | 0.03 | 81 | 1000.8 |
| 20260503213107 | 0 | 106 | 11.3 | 27.4 | 0.00 | 0.03 | 0.03 | 81 | 1001.1 |
| 20260503211613 | 0 | 158 | 12.9 | 35.4 | 0.00 | 0.03 | 0.03 | 80 | 1001.1 |
| 20260503210055 | 0 | 111 | 14.5 | 29.0 | 0.00 | 0.03 | 0.03 | 81 | 1000.9 |
| 20260503204555 | 0 | 224 | 14.5 | 40.2 | 0.00 | 0.03 | 0.03 | 81 | 1000.6 |
| 20260503203107 | 0 | 194 | 16.1 | 33.8 | 0.00 | 0.03 | 0.03 | 83 | 1000.7 |
| 20260503201556 | 0 | 210 | 12.9 | 32.2 | 0.00 | 0.03 | 0.03 | 84 | 1000.9 |
| 20260503200053 | 0 | 250 | 12.9 | 25.7 | 0.00 | 0.03 | 0.03 | 86 | 1000.9 |
| 20260503194603 | 0 | 5 | 12.9 | 27.4 | 0.00 | 0.05 | 0.03 | 88 | 1001.1 |